• In Italy
  • List of Countries
  • For 7 days
  • Water Temperature
  • Satellite Maps
  • Weather Map
  • Weather Widgets
  • user-avatar
    Login

    Hourly Weather Giumri

    Today, 18 December, Monday

    Time Temperature Precipitation Wind Pressure Humidity
    00:00 -1°C° 0 mm 1 mps 634 mmHg 69%
    01:00 -1°C° 0 mm 1 mps 634 mmHg 70%
    02:00 -3°C° 0 mm 2 mps 634 mmHg 71%
    03:00 -3°C° 0 mm 2 mps 634 mmHg 71%
    04:00 -3°C° 0 mm 2 mps 634 mmHg 73%
    05:00 -3°C° 0 mm 2 mps 634 mmHg 74%
    06:00 -3°C° 0 mm 2 mps 634 mmHg 76%
    07:00 -3°C° 0 mm 2 mps 634 mmHg 76%
    08:00 -2°C° 0 mm 2 mps 634 mmHg 77%
    09:00 -2°C° 0 mm 2 mps 634 mmHg 78%
    10:00 -1°C° 0 mm 2 mps 634 mmHg 78%
    11:00 +2°C° 0 mm 2 mps 634 mmHg 78%
    12:00 +4°C° 0 mm 1 mps 634 mmHg 77%
    13:00 +4°C° 0 mm 1 mps 634 mmHg 78%
    14:00 +4°C° 0 mm 1 mps 634 mmHg 79%
    15:00 +4°C° 0 mm 1 mps 633 mmHg 79%
    16:00 +3°C° 0 mm 1 mps 633 mmHg 81%
    17:00 +2°C° 0 mm 1 mps 633 mmHg 82%
    18:00 +1°C° 0 mm 1 mps 633 mmHg 83%
    19:00 +1°C° 0 mm 1 mps 633 mmHg 84%
    20:00 -1°C° 0 mm 2 mps 633 mmHg 84%
    21:00 -1°C° 0 mm 2 mps 633 mmHg 84%
    22:00 -2°C° 0 mm 2 mps 633 mmHg 84%
    23:00 -2°C° 0 mm 2 mps 633 mmHg 85%

    Tomorrow, 19 December, Tuesday

    Time Temperature Precipitation Wind Pressure Humidity
    00:00 -2°C° 0 mm 2 mps 633 mmHg 85%
    01:00 -2°C° 0 mm 2 mps 633 mmHg 85%
    02:00 -2°C° 0 mm 2 mps 634 mmHg 85%
    03:00 -2°C° 0 mm 2 mps 634 mmHg 85%
    04:00 -2°C° 0 mm 2 mps 634 mmHg 86%
    05:00 -2°C° 0 mm 2 mps 634 mmHg 86%
    06:00 -2°C° 0 mm 2 mps 634 mmHg 86%
    07:00 -2°C° 0 mm 2 mps 634 mmHg 86%
    08:00 -1°C° 0 mm 2 mps 634 mmHg 85%
    09:00 -1°C° 0 mm 2 mps 635 mmHg 85%
    10:00 +1°C° 0 mm 2 mps 635 mmHg 83%
    11:00 +2°C° 0 mm 2 mps 635 mmHg 82%
    12:00 +3°C° 0 mm 2 mps 635 mmHg 81%
    13:00 +3°C° 0 mm 2 mps 635 mmHg 81%
    14:00 +3°C° 0 mm 2 mps 635 mmHg 81%
    15:00 +4°C° 0 mm 1 mps 634 mmHg 81%
    16:00 +3°C° 0 mm 1 mps 634 mmHg 83%
    17:00 +1°C° 0 mm 2 mps 634 mmHg 84%
    18:00 -1°C° 0 mm 2 mps 635 mmHg 86%
    19:00 -1°C° 0 mm 2 mps 635 mmHg 85%
    20:00 -2°C° 0 mm 2 mps 635 mmHg 85%
    21:00 -2°C° 0 mm 2 mps 635 mmHg 85%
    22:00 -2°C° 0 mm 2 mps 635 mmHg 84%
    23:00 -2°C° 0 mm 2 mps 635 mmHg 84%

    Day after tomorrow, 20 December, Wednesday

    Time Temperature Precipitation Wind Pressure Humidity
    00:00 -2°C° 0 mm 2 mps 635 mmHg 84%
    01:00 -2°C° 0 mm 2 mps 635 mmHg 84%
    02:00 0°C° 0 mm 1 mps 635 mmHg 84%
    03:00 0°C° 0 mm 1 mps 635 mmHg 83%
    04:00 0°C° 0 mm 1 mps 636 mmHg 84%
    05:00 0°C° 0 mm 1 mps 636 mmHg 84%
    06:00 0°C° 0 mm 1 mps 636 mmHg 85%
    07:00 0°C° 0 mm 1 mps 636 mmHg 84%
    08:00 +1°C° 0 mm 1 mps 636 mmHg 83%
    09:00 +2°C° 0 mm 1 mps 637 mmHg 82%
    10:00 +2°C° 0.1 mm 1 mps 637 mmHg 81%
    11:00 +2°C° 0.1 mm 2 mps 637 mmHg 81%
    12:00 +3°C° 0.1 mm 2 mps 637 mmHg 80%
    13:00 +3°C° 0.6 mm 2 mps 637 mmHg 82%
    14:00 +3°C° 0.6 mm 2 mps 636 mmHg 83%
    15:00 +3°C° 0.6 mm 2 mps 636 mmHg 85%
    16:00 +3°C° 0.4 mm 2 mps 636 mmHg 86%
    17:00 +2°C° 0.4 mm 2 mps 636 mmHg 87%
    18:00 +2°C° 0.4 mm 2 mps 636 mmHg 88%
    19:00 +2°C° 0.3 mm 2 mps 636 mmHg 88%
    20:00 +2°C° 0.3 mm 2 mps 637 mmHg 89%
    21:00 +2°C° 0.3 mm 2 mps 637 mmHg 89%
    22:00 +2°C° 0.4 mm 2 mps 637 mmHg 89%
    23:00 +2°C° 0.4 mm 2 mps 637 mmHg 90%

    21 December, Thursday

    Time Temperature Precipitation Wind Pressure Humidity
    00:00 +2°C° 0.4 mm 2 mps 637 mmHg 91%
    01:00 +2°C° 0.6 mm 2 mps 636 mmHg 91%
    02:00 +2°C° 0.6 mm 2 mps 636 mmHg 91%
    03:00 +2°C° 0.6 mm 2 mps 636 mmHg 92%
    04:00 +2°C° 0.1 mm 2 mps 636 mmHg 92%
    05:00 +2°C° 0.1 mm 2 mps 636 mmHg 92%
    06:00 +3°C° 0.1 mm 2 mps 636 mmHg 92%
    07:00 +3°C° 0.1 mm 2 mps 636 mmHg 91%
    08:00 +3°C° 0.1 mm 2 mps 637 mmHg 90%
    09:00 +3°C° 0.1 mm 2 mps 637 mmHg 90%
    10:00 +3°C° 0 mm 3 mps 637 mmHg 89%
    11:00 +3°C° 0 mm 3 mps 637 mmHg 88%
    12:00 +4°C° 0 mm 3 mps 637 mmHg 87%
    13:00 +5°C° 0.1 mm 2 mps 636 mmHg 86%
    14:00 +5°C° 0.1 mm 2 mps 636 mmHg 85%
    15:00 +6°C° 0.1 mm 1 mps 636 mmHg 85%
    16:00 +5°C° 0.1 mm 1 mps 636 mmHg 86%
    17:00 +4°C° 0.1 mm 1 mps 636 mmHg 87%
    18:00 +4°C° 0.1 mm 1 mps 635 mmHg 88%
    19:00 +3°C° 0.1 mm 1 mps 635 mmHg 88%
    20:00 +3°C° 0.1 mm 1 mps 635 mmHg 88%
    21:00 +2°C° 0.1 mm 2 mps 635 mmHg 87%
    22:00 +2°C° 0.1 mm 2 mps 635 mmHg 88%
    23:00 +1°C° 0.1 mm 2 mps 634 mmHg 88%

    22 December, Friday

    Time Temperature Precipitation Wind Pressure Humidity
    00:00 +1°C° 0.1 mm 2 mps 634 mmHg 89%
    01:00 +1°C° 0.1 mm 2 mps 634 mmHg 89%
    02:00 +2°C° 0.1 mm 1 mps 633 mmHg 89%
    03:00 +2°C° 0.1 mm 1 mps 633 mmHg 89%
    04:00 +2°C° 0.1 mm 1 mps 633 mmHg 89%
    05:00 +2°C° 0.1 mm 1 mps 632 mmHg 90%
    06:00 +1°C° 0.1 mm 1 mps 632 mmHg 90%
    07:00 +1°C° 0.2 mm 2 mps 632 mmHg 89%
    08:00 +1°C° 0.2 mm 2 mps 631 mmHg 89%
    09:00 +2°C° 0.2 mm 2 mps 631 mmHg 88%
    10:00 +1°C° 0.5 mm 3 mps 630 mmHg 87%
    11:00 +1°C° 0.5 mm 4 mps 629 mmHg 87%
    12:00 +2°C° 0.5 mm 5 mps 629 mmHg 86%
    13:00 +1°C° 1 mm 4 mps 628 mmHg 88%
    14:00 +1°C° 1 mm 4 mps 628 mmHg 89%
    15:00 +1°C° 1 mm 4 mps 627 mmHg 91%
    16:00 +1°C° 0.8 mm 4 mps 627 mmHg 92%
    17:00 0°C° 0.8 mm 4 mps 627 mmHg 93%
    18:00 +1°C° 0.8 mm 3 mps 627 mmHg 93%
    19:00 +1°C° 1.5 mm 3 mps 628 mmHg 93%
    20:00 -1°C° 1.5 mm 4 mps 628 mmHg 92%
    21:00 -2°C° 1.5 mm 4 mps 628 mmHg 92%
    22:00 -2°C° 0.4 mm 4 mps 628 mmHg 92%
    23:00 -2°C° 0.4 mm 3 mps 628 mmHg 92%

    23 December, Saturday

    Time Temperature Precipitation Wind Pressure Humidity
    00:00 -2°C° 0.4 mm 3 mps 629 mmHg 92%
    01:00 -4°C° 0.1 mm 3 mps 629 mmHg 91%
    02:00 -6°C° 0.1 mm 3 mps 628 mmHg 90%
    03:00 -6°C° 0.1 mm 2 mps 628 mmHg 89%
    04:00 -7°C° 0 mm 2 mps 628 mmHg 88%
    05:00 -8°C° 0 mm 2 mps 628 mmHg 86%
    06:00 -8°C° 0 mm 2 mps 628 mmHg 85%
    07:00 -8°C° 0 mm 2 mps 628 mmHg 85%
    08:00 -8°C° 0 mm 2 mps 629 mmHg 84%
    09:00 -8°C° 0 mm 2 mps 629 mmHg 83%
    10:00 -7°C° 0 mm 2 mps 629 mmHg 82%
    11:00 -3°C° 0 mm 1 mps 629 mmHg 80%
    12:00 -2°C° 0 mm 1 mps 629 mmHg 79%
    13:00 -2°C° 0 mm 1 mps 628 mmHg 80%
    14:00 -2°C° 0 mm 1 mps 628 mmHg 80%
    15:00 -2°C° 0 mm 1 mps 628 mmHg 81%
    16:00 -3°C° 0 mm 1 mps 628 mmHg 81%
    17:00 -4°C° 0 mm 1 mps 628 mmHg 82%
    18:00 -6°C° 0 mm 1 mps 628 mmHg 82%
    19:00 -6°C° 0 mm 1 mps 629 mmHg 82%
    20:00 -6°C° 0 mm 1 mps 629 mmHg 82%
    21:00 -6°C° 0 mm 1 mps 630 mmHg 82%
    22:00 -6°C° 0 mm 1 mps 630 mmHg 82%
    23:00 -8°C° 0 mm 2 mps 630 mmHg 83%
    Show more